Friday, October 31, 2014
15:45 UTC
  |  Log In   |  Register Free
Airport Search:

Henderson Field Airport
(KACZ)

Henderson Field Airport Diagram
No Airport Diagram Available

FAA data valid effective September 18, 2014 - November 13, 2014 (unless otherwise noted).

 
 
 
 
 
 
 
 
 
 
 
 
 
 

Current Aviation Weather for Henderson Field Airport (KACZ)

METAR data is unavailable for ACZ. The nearest METAR location is at KDPL (17 nm NE from ACZ).

The most recent METAR observation for KDPL was updated at: 1509
METAR Summary (Translated METAR)
KDPL
311455Z AUTO 03004KT 7SM CLR 15/07 A2992 RMK AO2 T01460068
(17 nm NE from KACZ)
KOAJ
311455Z AUTO 01011G14KT 10SM CLR 15/07 A2990 RMK AO1 57003
(20.4 nm NE from KACZ)
TAF Summary (Translated TAF)
KOAJ
(20.9 nm SE from KDPL)
311416Z 3114/0112 01008KT P6SM SKC FM312300 02003KT P6SM BKN060 AMD LTD TO CLD VIS AND WIND
  Airport Weather Conditions for KACZ

Current weather conditions are
not available for ACZ


The nearest NOAA weather station
is at DPL, (17 nm NE from ACZ)
  
 Current Weather at DPL
56° F
Fair
Northeast winds at 4.6 mph
DPL NOAA Radar

Pressure: 29.92 in
Humidity: 65%
Wind: Northeast at 4.6 MPH (4 KT)
Dew Point: 44.8°F
Visibility: 10.00 mi


Airport Weather Forecast for KACZ

Translated METAR and TAF for KDPL
Translated METAR for KDPL (1540 UTC 31 October 2014)
found at http://aviationweather.gov/adds/metars/
 
METAR text: KDPL 311535Z AUTO 36008KT 10SM CLR 16/07 A2991 RMK AO2 T01550065
Conditions at: KDPL (KENANSVILLE/DUPL, NC, US) observed 1535 UTC 31 October 2014
Temperature: 15.5°C (60°F)
Dewpoint: 6.5°C (44°F) [RH = 55%]
Pressure (altimeter): 29.91 inches Hg (1013.0 mb)
Winds: from the N (360 degrees) at 9 MPH (8 knots; 4.2 m/s)
Visibility: 10 or more miles (16+ km)
Ceiling: at least 12,000 feet AGL
Clouds: sky clear below 12,000 feet AGL
Weather: automated observation with no human augmentation;
there may or may not be significant weather present at this time
Translated TAF for KDPL

There is no translated TAF available for this airport

Find All Airport Services Find A Hotel Find A Rental Car Find A Golf Course Find A Restaurant $100 Hamburger



FBO's on the Field
FBO Company Facility Photos Services Transportation Aviation Fuel Prices: Prices include tax
Catering Weather Repair Courtesy Rental Type 100LL JetA JetA+ MOGAS 8087
 
Henderson Field

This FBO has not yet been rated
FS:Phillips 66
Last Updated: Oct-24
Login to update fuel prices
SS:
Contact Henderson FieldMore FBO Information
 
Add another FBO Facility Photos Catering Weather Repair Courtesy Rental Type 100LL JetA JetA+ MOGAS 8087
Services Transportation Aviation Fuel Prices: Prices include tax


model-print
model-print
model-print
model-print